CAPE
0 0 0 2 2 1 1 1 1 2 3 2 3 1 0 0 6 3 16 13 22 21 19 19 8 3 3 3 2 0 0 0 0 0 0 0 0 0 0 0 0 0 0
0 0 0 1 2 2 1 2 2 1 2 3 6 4 0 0 9 32 34 37 41 31 42 35 22 25 9 4 3 0 0 0 0 0 0 0 0 0 0 0 0 0 0
0 0 0 1 3 2 3 1 2 2 2 4 4 2 1 0 2 7 23 34 55 81 69 62 71 76 37 36 20 0 0 0 0 0 0 0 0 0 0 0 0 0 0
0 0 0 0 2 1 4 6 1 1 2 1 1 0 0 0 0 2 6 3 41 63 106 100 61 70 42 40 19 1 0 0 0 0 0 0 0 0 0 0 0 0 0
0 0 0 0 0 2 1 4 2 1 0 1 0 0 0 0 4 0 5 5 16 18 20 22 23 15 46 64 35 5 0 0 0 0 0 0 0 0 0 0 0 0 0
0 0 0 0 0 0 2 3 2 0 0 0 0 0 0 0 0 0 2 1 0 0 5 1 6 5 32 37 37 49 13 0 0 0 0 0 0 0 0 0 0 0 0
0 0 0 0 0 0 0 2 1 1 0 0 0 0 0 0 0 0 0 0 0 0 0 0 0 0 0 0 0 0 3 5 4 0 0 0 0 0 0 0 0 0 0
0 0 0 0 0 0 0 0 0 0 0 0 0 0 0 0 0 0 0 0 0 0 0 0 0 0 0 0 0 0 0 0 0 0 0 0 0 2 0 0 0 0 0
0 0 0 0 0 0 0 0 0 0 0 0 0 0 0 0 0 0 0 0 0 0 0 0 0 0 0 0 0 0 0 0 0 0 0 0 0 0 0 0 0 0 0
0 0 0 0 0 0 0 0 0 0 0 0 0 0 0 0 0 0 0 0 0 0 0 0 0 0 0 0 0 0 0 0 0 0 0 0 0 0 0 0 0 0 0
0 0 0 0 0 0 0 0 0 0 0 0 0 0 0 0 0 0 0 0 0 0 0 0 0 0 0 0 0 0 1 0 0 2 1 3 2 0 0 0 0 0 0
0 0 0 0 0 0 0 0 0 0 0 0 0 0 0 0 0 0 0 0 0 0 0 0 0 0 0 0 0 0 0 0 0 2 2 2 1 0 0 0 0 0 0
0 0 0 0 0 0 0 0 0 0 0 0 0 0 0 0 0 0 0 0 0 0 0 0 0 0 0 0 0 0 0 0 1 2 2 1 2 0 0 0 0 0 0
0 0 0 0 0 0 0 0 0 0 0 0 0 0 0 0 0 0 0 0 0 0 0 0 0 0 0 0 0 0 0 1 1 2 2 1 0 0 0 0 0 0 0
0 0 0 0 0 0 0 0 0 0 0 0 0 0 0 0 0 0 0 0 0 0 0 0 0 0 0 1 1 0 0 2 1 2 1 1 0 0 0 0 0 0 0
0 0 0 0 0 0 0 0 0 0 0 0 0 0 0 0 0 0 0 0 0 0 0 0 0 1 2 0 0 0 1 2 2 2 4 1 1 0 0 0 0 0 0
0 0 0 0 0 0 0 0 5 0 1 0 0 0 0 0 0 0 0 0 0 0 0 2 5 4 4 0 0 0 1 1 2 2 2 2 0 0 0 0 0 0 0
0 0 0 0 0 0 0 0 0 0 7 8 9 0 0 0 0 0 0 0 0 1 1 1 1 0 0 0 0 0 1 1 2 2 1 0 0 0 0 0 0 0 0
0 0 0 0 0 0 0 0 0 0 1 8 14 14 18 8 0 0 0 1 0 0 0 0 0 0 0 0 0 2 0 1 1 1 1 1 1 0 0 0 0 1 0
0 0 0 0 0 0 0 0 0 0 0 0 0 7 18 19 5 0 0 0 0 0 1 2 2 1 1 2 2 0 1 3 2 3 3 1 2 2 0 0 0 0 0
0 0 0 0 0 0 0 0 0 0 0 0 0 0 0 0 0 0 1 1 1 3 3 3 5 3 2 0 0 0 2 2 3 3 3 1 0 1 0 0 0 0 0
0 0 0 0 0 0 0 0 0 0 0 0 0 0 0 1 1 0 2 2 4 3 5 3 3 1 1 1 1 1 0 0 0 0 0 3 2 1 0 0 0 0 0
0 0 0 0 0 0 1 0 0 0 1 1 1 3 4 4 3 2 3 2 3 3 4 3 1 1 3 4 3 1 0 0 0 0 0 1 0 0 0 0 0 0 0
2 0 1 0 0 5 6 4 2 1 1 1 3 3 2 3 3 4 4 3 2 2 2 2 2 3 1 1 0 0 0 0 0 0 0 0 0 0 0 0 0 0 0
1 2 3 8 2 1 0 1 1 0 1 2 3 5 4 3 3 4 2 2 1 1 2 3 1 0 1 1 0 0 0 0 0 0 0 0 0 0 0 0 0 0 0
4 5 5 5 6 4 4 1 1 2 1 2 6 4 4 5 6 5 7 5 2 1 1 0 0 2 1 1 1 1 1 0 0 0 0 0 0 1 0 0 0 0 0
CIN
0 0 0 0 0 0 0 0 0 0 0 0 0 0 0 -7 -49 -61 -93 -109 -90 -122 -138 -127 -159 -190 -155 -152 -179 0 0 0 0 0 0 0 0 0 0 0 0 0 0
0 0 0 0 0 0 0 0 0 0 0 0 0 0 0 0 -27 -40 -79 -96 -106 -111 -108 -101 -119 -148 -151 -167 -182 0 0 0 0 0 0 0 0 0 0 0 0 0 0
0 0 0 0 0 0 -6 -11 0 0 0 0 0 0 -1 0 -52 -73 -85 -90 -83 -78 -89 -86 -99 -123 -138 -113 -148 0 0 0 0 0 0 0 0 0 0 0 0 0 0
0 0 0 0 0 0 -1 -5 0 0 0 0 0 0 0 0 0 -77 -100 -106 -93 -68 -63 -67 -84 -71 -82 -98 -124 -19 0 0 0 0 0 0 0 0 0 0 0 0 0
0 0 0 0 0 0 0 0 0 0 0 -1 0 0 0 0 -2 0 -78 -68 -87 -77 -30 -41 -37 -18 -51 -53 -86 -116 0 0 0 0 0 0 0 0 0 0 0 0 0
0 0 0 0 0 -1 0 0 0 0 0 0 0 0 0 0 0 0 -64 -77 0 0 -82 -32 -41 -18 -52 -72 -75 -71 -108 0 0 0 0 0 0 0 0 0 0 0 0
0 0 0 0 0 0 0 0 0 0 0 0 0 0 0 0 0 0 0 0 0 0 0 0 0 0 0 0 0 0 -44 -66 -95 0 0 0 0 0 0 0 0 0 0
0 0 0 0 0 0 0 0 0 0 0 0 0 0 0 0 0 0 0 0 0 0 0 0 0 -94 0 0 0 0 0 0 0 0 0 0 0 -13 0 0 0 0 0
0 0 0 0 0 0 0 0 0 0 0 0 0 0 0 0 0 0 0 0 0 0 0 0 0 0 0 0 0 0 0 0 0 0 -13 0 0 0 0 0 0 0 0
0 0 0 0 0 0 0 0 0 0 0 0 0 0 0 0 0 0 0 0 0 0 0 0 0 0 0 0 0 0 0 0 0 0 0 0 0 0 0 0 0 0 0
0 0 0 0 0 0 0 0 0 0 0 0 0 0 0 0 0 0 0 0 0 0 0 0 0 0 0 0 0 -36 -117 0 -65 0 0 0 0 0 0 0 0 0 0
0 0 0 0 0 0 0 0 0 0 0 0 0 0 0 0 0 0 0 0 0 0 0 0 0 0 0 0 0 0 0 0 0 0 0 0 0 0 0 0 0 0 0
0 0 0 0 0 0 0 0 0 0 0 0 0 0 0 0 0 0 0 0 0 0 0 0 0 0 0 0 0 0 0 0 0 0 0 0 0 0 0 0 0 0 0
0 0 0 0 0 0 0 0 0 0 0 0 0 0 0 0 0 0 0 0 0 0 0 0 0 0 0 0 0 0 -7 0 0 0 0 0 0 0 0 0 0 0 0
0 0 0 0 0 0 0 0 0 0 0 0 0 0 0 0 0 0 0 0 0 0 0 0 0 0 0 0 0 0 0 0 0 0 0 0 0 0 0 0 0 0 0
0 0 0 0 0 0 0 0 0 0 0 0 0 0 0 0 0 0 0 0 0 0 0 0 0 0 0 0 0 0 0 0 0 0 0 0 0 0 0 0 0 0 0
0 0 0 0 0 0 0 0 -353 0 -182 0 0 0 0 0 0 0 0 0 0 0 0 0 0 0 0 0 0 0 0 0 0 0 0 0 0 0 0 0 0 0 0
0 0 0 0 0 0 0 0 0 -134 -525 -547 -631 0 0 0 0 0 0 0 0 0 0 0 0 0 0 0 0 0 0 0 0 0 0 0 0 0 0 0 0 0 0
0 0 0 0 0 0 0 0 0 0 -540 -470 -545 -651 -662 -456 0 0 0 0 0 0 0 0 0 0 0 0 0 0 0 0 0 0 0 0 0 0 0 0 0 0 0
0 0 0 0 0 0 0 0 0 0 0 0 0 -672 -616 -530 -483 0 0 0 0 0 0 0 0 0 0 0 0 0 0 0 0 0 0 0 0 0 0 0 0 0 0
0 0 0 0 0 0 0 0 0 0 0 0 0 0 0 0 0 0 0 0 0 0 0 0 0 0 0 0 0 0 0 0 0 0 0 0 0 0 0 0 0 0 0
0 0 0 0 0 0 0 0 0 0 0 0 0 0 0 0 0 0 0 0 0 0 0 0 0 0 0 0 0 0 0 0 0 0 0 0 0 0 0 0 0 0 0
0 0 0 0 0 0 0 0 0 0 0 0 0 0 0 0 0 0 0 0 0 0 0 0 0 0 0 0 0 0 0 0 0 0 0 0 0 0 0 0 0 0 0
0 0 0 0 0 0 0 0 0 0 0 0 0 0 0 0 0 0 0 0 0 0 0 0 0 0 0 0 0 0 0 0 0 0 0 0 0 0 0 0 0 0 0
0 0 0 0 0 0 0 0 0 0 0 0 0 0 0 0 0 0 0 0 0 0 0 0 0 0 0 0 0 0 0 0 0 0 0 0 0 0 0 0 0 0 0
0 0 0 0 0 0 0 0 0 0 0 0 0 0 0 0 0 0 0 0 0 0 0 0 0 0 0 0 0 0 0 0 0 0 0 0 0 0 0 0 0 0 0
Wind_Speed
7 9 10 11 11 10 8 6 2 8 12 11 12 14 21 31 28 25 19 25 21 19 16 12 9 7 6 5 3 5 4 8 12 15 18 20 19 18 16 14 12 12 11
6 8 9 10 10 10 10 9 9 8 15 15 15 15 17 21 23 24 21 20 15 17 15 13 12 8 7 6 5 5 8 15 15 18 18 21 20 20 16 14 14 14 14
7 8 11 12 11 12 13 16 23 26 11 13 16 11 13 17 19 20 19 17 19 19 16 15 14 11 10 8 6 11 16 20 18 19 18 17 17 19 18 19 16 14 16
9 9 11 13 14 14 15 18 21 26 21 12 11 15 18 18 17 17 15 14 16 17 18 15 18 17 15 11 14 22 26 22 21 22 26 24 23 22 24 21 19 15 15
11 12 14 16 16 16 16 17 19 19 21 23 23 18 18 17 18 17 16 18 15 16 18 17 20 32 24 30 27 23 21 20 23 20 23 23 23 25 25 28 21 19 15
12 13 13 15 16 16 16 17 18 17 19 21 20 19 20 26 16 17 17 17 16 20 18 18 20 36 39 28 28 25 22 21 23 25 25 23 25 22 22 22 22 19 20
11 13 12 14 14 15 16 17 18 18 18 19 19 21 22 27 30 30 30 29 30 15 19 16 16 18 27 27 27 25 23 21 23 23 23 26 29 25 25 21 22 22 21
7 13 15 12 13 14 16 15 16 16 17 20 20 20 23 24 27 33 34 29 30 22 19 17 17 18 27 30 29 28 27 26 27 28 27 27 24 24 22 22 21 24 24
6 13 14 13 13 13 15 16 16 17 18 18 18 20 22 25 26 26 22 20 22 16 16 16 18 22 29 32 34 35 35 31 28 28 23 26 23 27 24 22 20 21 25
2 7 13 15 14 13 14 15 16 17 17 19 18 18 19 19 19 19 20 20 23 22 19 21 21 21 23 25 27 28 33 31 29 31 27 27 28 26 22 20 19 19 22
4 1 5 8 11 9 11 15 17 15 16 17 18 16 18 18 17 19 20 23 17 17 18 19 21 20 19 19 20 24 28 32 37 32 27 26 25 24 22 20 20 20 20
12 11 6 1 5 6 8 12 16 16 17 16 17 16 15 16 18 20 20 17 21 19 19 19 21 21 21 20 22 29 33 30 31 29 28 28 26 24 23 21 20 20 21
17 14 11 6 4 5 5 7 11 15 14 15 15 15 18 20 21 20 18 16 18 21 19 20 21 21 22 22 27 25 27 31 28 28 25 25 26 24 22 19 19 20 21
21 21 19 13 6 6 6 7 6 7 11 14 16 16 18 20 20 17 16 17 18 18 21 22 22 25 24 25 24 24 24 29 29 29 25 27 26 23 21 19 20 21 21
33 31 29 23 13 10 11 10 9 7 8 10 13 18 18 16 16 17 17 18 19 20 20 21 23 25 25 24 25 25 24 24 23 26 26 24 23 21 19 20 20 19 21
36 38 36 29 18 13 11 11 11 10 10 10 14 11 11 12 13 13 14 16 19 21 22 23 24 25 26 25 24 24 23 23 24 23 21 22 20 17 17 18 17 17 18
38 39 40 33 28 17 12 13 13 13 12 12 12 14 15 15 14 14 14 15 17 19 20 22 23 26 27 25 23 24 23 22 20 19 19 18 17 16 15 16 14 17 22
35 36 32 27 25 28 21 19 17 13 11 14 14 15 19 20 22 20 18 17 17 18 18 20 20 21 22 21 21 20 19 18 18 17 17 15 14 15 15 13 18 22 23
40 38 35 34 31 23 20 15 15 13 12 13 14 14 15 17 19 21 21 21 20 18 18 19 19 20 21 19 17 15 17 17 17 16 14 14 15 12 13 18 20 22 22
39 39 38 35 31 30 21 17 17 16 17 17 15 14 14 16 18 17 19 23 22 22 21 21 21 19 19 14 13 14 14 14 14 15 15 12 10 14 17 19 21 23 24
38 38 36 34 32 31 25 22 20 19 16 17 15 13 13 14 15 16 19 20 21 21 21 21 21 18 15 12 12 12 12 12 12 13 14 17 16 17 18 20 22 24 23
32 30 28 27 27 26 23 20 18 16 14 12 11 11 12 13 15 16 18 19 19 19 19 17 17 16 15 13 12 12 11 11 11 13 15 15 16 17 18 21 21 22 24
29 26 22 20 20 19 18 15 13 11 10 10 9 9 11 14 15 17 18 19 18 17 16 15 13 13 14 13 11 11 10 13 14 13 14 15 16 18 21 21 23 25 27
29 25 23 19 17 17 15 13 11 9 7 8 10 11 12 16 18 18 17 15 14 12 10 10 12 12 14 15 15 15 15 14 15 15 17 17 20 22 22 24 26 28 31
29 26 23 20 17 16 16 17 16 12 10 11 12 14 15 15 16 18 18 17 16 13 13 13 13 13 15 15 14 15 16 17 17 17 19 22 23 26 28 30 31 32 32
25 24 22 20 21 19 20 18 17 16 11 13 14 15 15 15 16 16 16 18 16 15 14 14 14 14 13 13 14 15 15 16 18 23 25 27 29 32 32 32 32 32 33
Wind_Direction
100 97 94 104 109 107 116 128 195 213 212 213 202 212 220 220 223 224 218 229 232 223 221 223 222 212 220 216 204 285 279 288 277 277 278 277 284 292 299 312 322 330 339
92 116 114 107 107 105 110 125 140 220 225 219 220 222 213 228 232 229 230 234 206 214 218 221 228 212 217 234 244 255 281 277 269 272 279 281 291 291 300 308 312 321 327
136 122 136 132 120 118 115 123 140 155 174 223 221 220 218 227 227 232 231 228 223 222 220 228 237 245 244 239 247 265 270 270 271 274 282 294 299 306 307 302 313 317 318
152 134 138 141 141 131 115 130 138 149 148 160 196 182 191 193 198 225 213 219 221 217 227 223 252 259 256 245 265 265 262 272 276 276 274 284 294 299 302 313 318 319 317
158 151 147 149 145 138 130 123 130 136 148 152 152 159 176 215 237 229 212 228 227 214 227 242 247 253 261 257 260 268 273 278 278 281 287 286 292 295 296 304 313 318 318
163 154 144 141 143 140 137 131 130 131 138 149 155 155 163 171 200 213 207 216 230 240 230 233 254 244 242 258 265 273 278 281 281 283 285 287 293 295 296 299 306 309 317
159 159 151 147 144 145 143 141 141 139 143 148 152 159 162 170 176 175 178 181 186 202 197 229 217 212 254 263 271 276 281 282 284 287 287 286 287 293 294 297 305 305 316
150 168 165 156 150 151 152 148 150 149 148 153 156 158 165 169 175 182 184 187 191 194 198 207 215 243 261 267 272 277 280 284 286 287 287 289 289 287 287 293 299 306 308
150 166 167 168 161 158 158 159 158 160 162 161 161 165 168 173 176 179 186 194 199 224 230 231 232 261 268 270 273 274 275 280 285 286 283 293 284 289 290 292 294 297 307
349 156 167 174 175 172 168 168 168 171 171 171 172 172 175 178 180 184 191 197 200 206 217 218 224 255 267 270 274 274 275 279 285 286 283 278 282 286 287 289 294 296 300
316 216 167 172 176 184 185 181 181 182 181 183 182 184 185 188 192 194 196 199 213 224 236 247 257 246 246 254 261 270 277 281 283 283 281 280 278 283 286 288 291 294 298
315 304 304 208 178 189 190 193 190 191 191 190 192 196 200 204 202 201 208 217 212 217 227 242 233 235 243 244 259 273 277 278 284 283 280 279 278 280 284 287 286 292 297
301 310 312 303 241 212 205 200 196 202 207 203 203 203 202 201 207 213 225 228 228 225 246 239 239 242 245 262 274 274 273 276 279 281 279 277 278 279 284 285 288 294 297
296 300 306 307 273 252 247 240 233 225 211 215 222 222 213 213 215 223 230 232 236 243 246 241 250 262 262 264 266 270 270 280 276 277 276 275 275 277 283 282 289 294 295
282 287 289 299 289 275 278 269 267 248 228 219 220 220 223 225 225 228 235 242 248 249 252 257 255 267 269 267 269 274 273 270 273 277 278 275 277 276 277 284 288 288 294
284 279 282 288 290 273 264 275 272 258 254 230 207 230 239 241 235 243 246 250 254 259 261 262 265 268 273 272 266 275 276 272 273 279 276 281 277 279 284 288 289 289 293
290 287 280 286 283 282 262 260 262 273 250 233 247 256 263 266 267 272 274 271 268 271 266 267 269 268 273 274 272 268 276 276 274 274 277 281 282 281 292 299 297 303 307
291 289 292 293 292 289 284 281 277 263 247 240 252 264 270 276 281 286 288 289 287 281 276 275 272 273 275 274 274 272 276 277 278 274 275 275 279 286 292 295 300 306 308
285 288 289 290 295 302 289 277 272 264 258 240 244 257 266 275 282 284 290 294 296 293 289 288 284 281 283 279 276 272 278 282 285 283 278 277 284 287 292 298 301 305 308
289 285 285 290 295 294 298 287 277 273 274 278 273 274 276 281 288 292 296 298 298 299 300 299 297 293 289 282 275 277 276 278 284 293 295 287 290 297 301 302 303 304 306
295 291 287 286 292 292 293 290 289 282 280 288 287 289 291 293 296 302 305 304 302 303 303 303 304 303 298 290 286 281 278 276 282 289 292 297 303 305 307 309 308 309 312
311 306 300 293 293 297 289 290 289 292 293 288 295 299 302 305 306 307 310 311 308 306 306 306 308 310 309 305 302 299 296 291 283 292 299 304 307 310 312 314 315 316 316
317 317 315 320 314 310 300 300 300 299 298 297 297 306 313 312 316 316 314 315 313 310 308 307 307 310 315 319 319 317 313 303 306 309 307 308 310 313 315 316 316 316 315
316 316 317 324 323 323 321 321 320 319 320 313 313 314 315 322 321 325 327 324 324 325 321 316 314 311 313 314 312 315 315 315 315 315 314 312 312 312 312 314 315 314 315
312 315 313 316 322 324 327 318 320 319 321 318 320 318 319 324 329 331 330 327 330 328 321 316 314 310 312 316 317 314 313 314 314 314 312 310 309 309 310 311 312 313 314
313 311 311 314 310 314 313 319 322 316 321 319 316 324 324 324 329 329 335 343 342 343 341 333 324 327 330 328 325 323 321 319 316 312 310 309 309 309 309 309 310 312 314